User: anonymous   Login
Location: Deuil
(48.9767°N, 2.3272°E)
Time: 02:44:25
(UTC+00:00)
Language:

NOSS 2-3 (E) - Orbit

View from above orbital plane
View from above orbital plane
View from above satellite
View from above satellite

Ground track
Ground track

The orbit data is extracted from the following two-line orbital elements,

1 23936U 96029E   22014.14840303 0.00000000  00000-0  00000-0 0    04
2 23936  63.3352  67.2037 0765620  27.3362 332.6638 13.41022034    02
Epoch (UTC): 14 January 2022 03:33:42
Eccentricity: 0.0765620
inclination: 63.3352°
perigee height: 532 km
apogee height: 1678 km
right ascension of ascending node: 67.2037°
argument of perigee: 27.3362°
revolutions per day: 13.41022034
mean anomaly at epoch: 332.6638°
orbit number at epoch: 0

The dashed part of the orbit path shows where the satellite is in the earth's shadow,  

DLR